Location: Krasnoyarskiy Pitomnik
(51.1333°N, 71.6167°E)
Time: 23:37:38
(UTC+00:00)

NOSS 2-2 (C) - Pass Details

Date: 07 June 2022
Orbit: 439 x 1763 km, 63.3° (Epoch: 02 June)

Event Time Altitude Azimuth Distance (km) Brightness Sun altitude
Rises 16:58:33 0° 313° (NW) 2,944 8.7 -10.4°
Reaches altitude 10° 17:00:34 10° 309° (NW) 2,169 7.6 -10.6°
Maximum altitude 17:05:25 57° 231° (SW) 1,021 4.6 -11.0°
Enters shadow 17:11:07 14° 157° (SSE) 2,618 6.1 -11.4°
